Theta_e
360 356 356 356 357 359 358 359 357 354 353 353 355 355 354 354 352 351 353 354 357 353 353 355 355 356 355 353 352 353 353 353 349 348 349 351 350 350 350 351 351 351 350
359 354 355 356 358 360 360 359 357 354 351 352 356 356 355 354 353 352 355 354 354 353 351 350 352 353 352 351 351 351 352 351 350 351 352 351 350 350 351 351 350 352 351
357 359 359 358 359 361 360 363 358 356 348 350 355 355 355 355 352 352 355 357 354 354 355 352 350 349 348 349 350 350 349 350 351 351 351 351 352 351 352 350 351 350 350
360 362 359 359 360 360 361 365 358 351 349 348 351 352 354 354 351 351 354 357 357 355 354 354 355 355 354 355 354 353 352 353 351 350 350 351 352 352 352 351 350 350 349
357 361 360 360 362 359 359 359 356 354 348 346 348 351 351 349 349 348 352 355 357 357 358 355 355 355 354 353 354 354 354 354 354 355 354 353 353 353 351 351 350 349 348
360 360 362 360 360 361 363 360 358 355 351 345 343 346 349 351 353 349 351 351 354 355 355 357 357 356 356 356 355 354 354 354 354 354 353 354 353 352 351 350 349 347 348
361 362 360 360 359 360 363 358 353 351 349 344 343 342 345 350 351 351 352 352 351 352 353 356 355 355 354 353 354 355 354 355 354 354 353 353 352 351 350 348 348 346 343
363 361 360 358 358 357 360 357 354 344 347 346 343 342 335 340 345 348 350 350 350 353 352 351 354 355 355 354 353 352 354 354 352 351 351 350 349 348 348 347 344 339 338
363 363 360 360 359 368 363 360 353 350 343 347 345 343 334 332 340 345 346 348 351 350 352 353 352 353 354 354 352 349 353 352 351 351 350 349 348 347 345 339 338 337 337
363 364 363 361 361 364 366 359 357 354 350 343 344 344 346 344 334 332 343 347 349 349 351 351 350 351 353 353 349 348 350 351 351 350 349 345 344 340 338 337 337 338 338
362 362 364 362 362 363 364 361 360 358 350 346 343 344 348 346 344 339 334 340 345 347 350 350 349 349 353 353 351 350 350 351 351 351 345 341 339 338 338 338 338 339 339
358 362 363 364 364 362 362 361 362 360 355 349 347 348 343 340 339 340 337 341 338 345 347 349 349 348 350 351 353 351 348 350 349 347 345 346 344 341 341 341 341 341 342
354 360 363 363 362 365 363 363 362 362 358 351 351 345 347 345 347 346 342 340 339 345 344 347 348 349 349 351 352 352 350 346 346 342 341 343 345 346 347 346 344 344 344
352 360 362 363 364 365 364 364 360 359 361 356 356 352 347 346 345 345 342 340 336 340 343 346 348 348 348 350 353 351 350 343 343 340 337 339 340 342 344 346 348 349 349
351 356 360 361 362 363 364 364 359 360 361 360 359 359 353 351 349 347 345 343 338 332 334 344 342 352 350 350 351 352 353 345 341 340 336 335 337 338 340 341 342 343 343
355 354 358 360 361 363 364 364 361 362 361 359 358 360 360 355 354 351 348 345 343 339 334 342 342 347 350 348 350 351 351 346 341 339 337 334 334 336 337 338 338 339 339
356 356 358 358 360 360 362 363 362 362 361 362 361 360 359 361 356 355 352 350 346 344 338 341 345 348 350 352 351 352 351 351 348 337 336 335 333 333 335 335 335 335 336
356 356 358 359 359 359 360 360 359 358 359 360 361 362 359 358 361 361 356 356 352 352 344 347 348 346 351 355 354 353 350 347 348 341 335 333 332 331 330 331 331 331 331
357 354 356 357 357 358 359 360 360 360 360 361 362 362 362 361 360 358 359 356 355 354 352 346 346 348 347 347 349 352 351 353 349 342 333 331 331 330 329 327 327 325 325
356 356 356 357 357 357 358 358 359 360 360 361 362 362 362 362 361 362 360 360 359 356 356 351 349 348 350 355 349 344 344 347 346 346 342 338 336 332 330 327 326 326 322
358 359 357 356 356 355 354 358 358 359 360 360 361 362 363 360 350 354 359 363 364 356 353 349 347 347 346 346 346 347 345 346 349 350 347 347 346 343 341 330 333 331 325
357 358 356 356 356 353 339 338 352 357 360 360 360 361 362 353 352 340 339 341 354 362 357 352 350 349 357 354 353 351 349 346 344 354 350 344 346 344 351 348 337 331 326
356 356 355 356 357 360 334 333 338 356 358 361 361 360 359 358 354 361 345 336 337 335 340 359 358 359 359 362 362 358 356 353 350 353 353 346 349 346 347 350 332 330 328
359 359 358 359 358 359 333 330 334 354 359 361 362 363 364 363 363 360 360 360 361 362 358 352 357 359 364 366 367 363 363 360 357 355 357 342 349 349 355 352 335 331 328
356 356 357 358 358 360 330 328 334 353 356 360 362 363 363 363 347 333 358 359 362 363 347 335 337 335 333 331 339 353 347 345 341 346 354 347 344 345 350 347 351 332 326
356 355 355 358 349 360 333 324 331 352 355 353 361 364 338 352 334 327 356 358 358 358 361 363 364 347 337 347 331 344 348 343 343 342 352 343 344 344 336 344 344 344 340
Wind_Speed
2 3 3 3 3 2 3 3 3 4 3 2 4 5 5 4 5 3 3 4 6 5 4 6 5 6 6 4 4 4 4 4 3 3 2 2 2 3 5 6 7 7 7
3 3 4 3 3 2 2 2 3 3 4 3 4 4 4 4 4 4 4 4 4 5 4 3 4 3 3 3 2 2 1 2 1 1 2 1 2 3 4 4 6 7 8
3 2 2 3 3 3 2 2 3 3 4 4 5 5 4 4 4 4 3 3 5 5 4 5 4 3 3 3 3 2 2 1 2 3 3 4 4 5 4 5 5 7 8
3 3 3 3 3 3 3 3 2 3 4 4 5 4 4 4 4 4 3 2 2 1 6 3 4 4 5 5 6 6 4 5 4 5 5 5 5 5 5 5 5 6 6
4 3 2 3 4 3 3 2 3 2 4 4 5 4 4 3 3 3 2 2 2 2 1 3 4 5 6 6 6 5 5 5 6 6 7 7 7 6 6 6 5 4 4
5 4 2 3 3 3 3 2 3 3 4 2 5 5 3 3 2 2 2 2 1 2 3 3 3 4 5 7 7 6 5 6 6 7 8 7 7 6 6 5 4 3 4
6 4 3 3 3 3 4 5 4 4 5 4 4 4 4 1 3 1 1 1 2 3 2 2 3 2 2 4 5 5 5 6 5 5 5 5 5 5 3 2 4 3 5
7 5 4 4 5 3 3 5 5 4 3 4 2 2 3 3 2 2 3 3 3 2 3 3 2 3 3 3 2 3 3 3 4 3 2 1 1 3 4 5 5 4 5
7 7 6 4 6 4 4 4 4 4 4 3 2 0 3 2 2 2 4 4 4 4 3 4 4 3 4 4 3 3 3 3 3 1 1 2 3 3 4 4 5 4 3
8 8 7 6 5 4 4 4 4 2 3 4 3 1 2 2 2 3 3 2 4 6 5 4 3 4 4 4 3 2 2 4 3 3 4 5 6 6 6 7 7 7 4
9 9 8 7 6 5 3 4 4 4 3 3 4 3 2 2 1 2 1 2 4 5 4 5 5 4 5 5 4 4 7 7 6 5 5 6 7 8 7 8 7 6 5
7 10 9 8 6 5 5 4 4 4 3 3 4 3 3 3 3 2 2 2 3 1 4 6 6 6 6 6 7 4 7 7 7 8 8 8 9 9 9 9 9 8 8
8 9 10 9 7 7 6 5 5 6 5 5 5 4 4 3 1 2 3 2 3 1 3 5 6 7 7 7 7 9 11 10 10 9 10 10 10 10 10 11 11 11 10
9 9 11 10 10 9 7 6 5 6 6 6 6 5 4 4 4 3 3 3 4 3 3 6 4 6 7 8 8 10 10 12 12 12 13 12 12 13 13 12 11 10 9
9 11 11 11 11 10 9 8 7 7 7 6 6 6 5 4 4 4 4 4 5 6 7 2 3 3 4 6 8 10 11 11 15 15 15 15 14 15 14 14 13 12 11
11 11 12 11 10 10 10 10 8 8 8 7 7 7 7 5 5 4 4 4 5 6 7 3 5 5 5 5 7 10 12 10 13 16 17 17 17 17 17 16 14 14 13
12 12 12 11 11 11 10 10 11 10 10 10 9 8 9 8 6 5 5 5 6 6 9 9 5 6 6 8 8 8 9 11 10 18 19 19 19 19 19 17 16 15 14
13 13 13 12 11 11 10 11 12 11 12 12 12 11 11 8 9 9 8 9 8 8 9 11 9 9 9 10 10 10 9 10 10 11 17 19 20 20 21 20 19 16 16
14 14 14 14 13 12 12 12 12 12 13 13 13 12 12 11 11 9 10 9 9 8 9 10 11 10 9 9 11 10 11 10 10 11 12 18 21 22 22 22 21 19 21
15 15 15 14 14 14 13 13 12 13 13 13 13 13 13 13 13 12 11 11 10 10 10 10 12 12 11 9 8 11 11 11 11 10 14 17 13 22 26 24 24 27 24
15 15 15 15 15 14 13 15 15 14 14 14 13 13 13 14 14 14 10 11 10 10 10 11 12 12 12 10 12 11 12 12 11 9 12 12 12 12 13 21 24 27 23
15 14 16 16 16 13 15 15 15 14 15 14 14 14 14 12 15 15 16 18 15 12 13 12 13 14 13 12 12 12 12 13 15 9 9 11 10 12 11 11 16 20 25
15 16 16 16 16 16 14 17 18 16 14 14 14 14 14 12 13 15 15 18 17 17 18 16 18 16 17 13 13 14 14 14 15 13 12 15 12 14 12 11 16 15 19
15 15 15 16 15 15 14 17 17 18 15 16 16 16 15 15 15 15 16 16 16 15 15 14 19 19 17 15 14 15 15 15 13 14 13 15 14 14 8 9 15 16 20
14 16 15 16 17 16 16 17 14 16 17 18 16 17 16 16 14 12 16 17 17 15 13 17 20 19 15 13 14 13 10 10 10 12 13 10 14 14 10 14 11 17 19
15 13 16 16 17 17 15 18 17 13 15 14 15 16 15 18 12 15 17 17 17 16 15 17 15 14 17 17 19 17 12 11 10 9 8 7 12 5 6 8 12 10 10
Wind_Direction
155 141 118 97 89 102 83 93 95 64 76 172 164 130 127 112 129 128 124 129 133 138 110 108 109 128 123 121 122 112 115 111 80 64 52 39 23 6 355 357 3 7 9
179 157 145 137 121 104 84 78 59 74 65 76 146 143 125 118 131 137 128 150 151 156 147 145 155 140 135 145 134 130 61 128 146 300 25 359 324 332 349 352 353 345 358
195 189 133 143 128 127 126 113 85 82 88 86 113 129 131 118 127 143 146 145 154 186 203 187 190 193 199 209 221 213 231 256 273 294 308 314 302 330 332 346 349 357 360
206 179 160 151 145 154 128 101 115 126 94 101 107 123 122 122 118 150 140 148 198 235 184 225 232 240 242 238 245 240 246 253 270 286 299 310 321 319 322 319 338 351 356
207 228 188 158 174 157 137 134 99 56 107 102 130 121 113 113 141 138 124 162 198 250 243 160 256 263 276 265 261 285 273 270 275 283 290 294 298 302 306 309 323 341 10
202 199 193 176 199 170 129 151 135 103 79 62 133 107 106 124 143 143 145 161 155 237 241 248 221 209 245 287 306 289 274 273 275 281 280 284 283 284 290 305 329 20 89
191 183 191 190 201 199 148 146 137 143 129 146 159 115 95 144 191 173 166 197 154 224 271 246 264 298 214 232 279 296 284 293 303 287 288 283 274 284 306 351 85 96 91
188 186 198 196 217 204 169 156 175 146 114 162 128 131 149 151 186 209 218 239 228 225 226 229 257 252 280 296 351 297 289 272 280 295 305 298 41 56 56 74 89 85 87
195 192 198 213 205 206 188 167 171 158 138 152 176 34 171 156 182 155 196 220 227 230 235 229 239 232 247 274 256 207 232 247 270 221 147 101 89 104 113 113 119 123 109
202 200 200 202 213 226 199 180 166 153 168 154 160 130 40 37 209 168 199 227 226 231 225 232 240 225 234 247 236 265 231 229 225 206 172 166 168 167 160 165 168 164 163
205 209 206 203 208 221 190 214 176 173 179 191 186 162 166 162 205 274 73 168 224 235 243 245 249 249 230 234 231 205 202 212 217 214 200 194 196 185 195 197 197 192 197
198 208 204 210 210 212 205 209 201 201 199 204 202 192 204 223 213 215 256 266 303 252 244 233 239 240 240 234 232 217 209 219 218 215 211 217 216 212 213 216 215 218 222
203 198 198 202 208 213 208 205 207 213 199 209 204 211 215 227 209 224 256 307 292 239 246 234 231 232 232 231 239 214 205 214 215 214 215 220 228 231 229 234 233 236 241
216 201 198 205 209 215 215 206 216 231 223 219 219 222 219 218 222 242 276 277 275 267 262 266 216 228 232 232 237 192 234 208 214 214 219 218 223 231 232 235 239 246 254
222 217 208 206 210 213 217 214 226 224 224 223 226 227 235 222 215 236 242 256 273 291 299 251 286 191 247 238 237 230 233 220 214 215 218 217 222 228 231 233 235 238 241
213 211 213 210 211 215 216 217 226 227 225 220 230 230 233 237 229 227 226 229 236 266 277 287 279 297 291 270 232 232 240 234 219 222 220 219 220 225 229 230 230 230 232
203 208 212 212 215 219 218 219 231 234 230 232 228 227 235 233 244 238 230 233 235 232 260 274 261 284 277 264 269 240 243 243 243 216 225 223 221 225 229 230 230 230 233
200 208 213 215 214 218 221 221 230 233 230 235 235 230 233 225 229 236 233 235 239 236 255 271 278 276 261 272 269 265 254 248 247 228 216 227 228 222 223 224 226 222 225
204 207 213 217 217 219 220 221 230 232 231 234 236 234 238 232 235 244 238 246 239 238 236 260 273 271 271 277 268 257 261 266 256 244 219 226 228 227 223 223 225 220 214
204 208 210 215 217 219 221 221 225 230 234 236 238 239 241 240 239 239 241 245 248 250 246 251 265 267 261 267 265 278 276 262 260 262 249 246 233 229 228 222 219 222 217
207 208 211 217 218 222 224 222 224 228 231 237 239 242 240 243 238 238 243 243 247 247 256 261 264 271 271 270 263 274 280 284 279 262 266 267 252 239 236 231 238 230 224
208 209 212 217 219 221 219 208 218 224 230 235 240 243 247 240 241 232 231 242 247 241 251 265 268 270 268 266 273 276 283 283 287 278 265 262 263 252 247 234 237 238 212
205 211 214 215 220 222 210 206 209 230 234 236 239 243 248 246 236 252 232 230 243 241 244 260 268 262 274 271 276 275 272 271 274 282 276 272 264 259 247 244 243 230 228
207 208 214 215 219 226 208 209 207 227 239 241 241 240 241 247 245 244 251 256 254 250 240 242 248 260 263 270 267 269 272 275 277 274 268 268 273 271 268 247 252 241 226
206 212 216 217 219 229 204 207 197 228 238 241 242 241 239 244 242 219 246 260 261 259 253 233 246 260 269 269 269 285 279 274 269 265 273 268 270 274 265 259 243 226 222
210 211 217 219 222 230 209 205 199 228 234 239 240 242 229 240 227 206 231 249 260 264 265 270 259 244 249 258 251 250 262 264 267 285 251 249 263 269 262 233 246 238 224